#timestamp,LO_Frequency,Hit,StdDev 
1681304415.7,286047007.9,N
1681304435.6,286047003.9,N
1681304455.4,286046989.3,N
1681304475.2,286046980.3,N
1681304495.1,286046980.2,N
1681304496.0,286046980.2,N
1681304515.8,286046978.9,N
1681304535.7,286046982.1,N
1681304555.5,286046981.2,N
1681304575.3,286046987.2,N
1681304595.2,286046992.1,N
1681304615.9,286046993.6,N
1681304635.7,286046997.2,N
1681304655.6,286047000.0,N
1681304675.4,286046996.8,N
1681304695.2,286047001.2,N
1681304715.1,286047000.4,N
1681304716.0,286047000.4,N
1681304735.8,286047000.4,N
1681304755.7,286046995.8,N
1681304775.5,286046996.0,N
1681304795.3,286047001.0,N
1681304815.2,286046999.4,N
1681304835.0,286047005.1,N
1681304835.9,286047005.1,N
1681304855.8,286047007.8,N
1681304875.6,286047015.4,N
1681304895.4,286047012.3,N
1681304915.3,286047010.7,N
1681304935.1,286047008.4,N
1681304955.8,286047003.6,N
1681304975.7,286047000.1,N
1681304995.5,286047005.0,N
1681305015.3,286046997.2,N
1681305035.2,286047001.9,N
1681305055.0,286047002.1,N
1681305056.0,286047002.1,N
1681305075.8,286046996.9,N
1681305095.6,286046994.1,N
1681305115.5,286046988.9,N
1681305135.3,286046989.7,N
1681305155.1,286046994.4,N
1681305175.9,286046997.0,N
1681305195.7,286047001.9,N
1681305215.5,286047006.8,N
1681305235.4,286047003.0,N
1681305255.2,286047001.0,N
1681305275.1,286047004.2,N
1681305276.0,286047004.2,N
1681305295.8,286047005.7,N
1681305315.6,286047006.8,N
1681305335.5,286047009.9,N
1681305355.3,286047000.9,N
1681305375.1,286046994.9,N
1681305395.9,286046997.2,N
1681305415.7,286046997.3,N
1681305435.6,286047001.0,N
1681305455.4,286047000.2,N
1681305475.2,286046995.0,N
1681305495.1,286046997.3,N
1681305496.0,286046997.3,N
1681305515.8,286046997.5,N
1681305535.6,286047000.7,N
1681305555.5,286047002.5,N
1681305575.3,286046997.5,N
1681305595.2,286046998.8,N
1681305615.9,286046997.3,N
1681305635.7,286046993.4,N
1681305655.6,286046987.8,N
1681305675.4,286046983.0,Y
1681305695.3,286046983.9,P
1681305715.1,286046992.6,N
1681305716.0,286046992.6,N
1681305735.8,286046996.4,N
1681305755.7,286046996.0,N
1681305775.5,286046992.7,N
1681305795.3,286046987.7,N
1681305815.2,286046983.2,Y
1681305835.0,286046988.3,P
1681305835.9,286046988.3,P
1681305855.8,286047000.9,N
1681305875.6,286047002.1,N
1681305895.4,286047003.7,N
1681305915.3,286046998.2,N
1681305935.1,286046995.1,N
1681305955.8,286046994.5,N
1681305975.7,286046985.8,N
1681305995.5,286046976.5,Y
1681306015.4,286046986.2,P
1681306035.2,286046993.8,N
1681306055.0,286046998.6,N
1681306055.9,286046998.6,N
1681306075.8,286047000.8,N
1681306095.6,286047004.1,N
1681306115.4,286047010.7,N
1681306135.3,286047011.6,N
1681306155.1,286047010.7,N
1681306175.9,286047008.0,N
1681306195.7,286047012.4,N
1681306215.5,286047010.6,N
1681306235.4,286047000.4,N
1681306255.2,286047007.6,N
1681306275.0,286047009.4,N
1681306275.9,286047009.4,N
1681306295.8,286047012.7,N
1681306315.6,286047012.0,N
1681306335.5,286047007.2,N
1681306355.3,286047008.7,N
1681306375.1,286047013.6,N
1681306395.9,286047008.9,N
1681306415.7,286047008.5,N
1681306435.5,286047000.5,N
1681306455.4,286046992.6,N
1681306475.2,286046996.8,N
1681306495.1,286046995.9,N
1681306496.0,286046995.9,N
1681306515.8,286046997.5,N
1681306535.6,286047000.7,N
1681306555.5,286047006.1,N
1681306575.3,286047009.3,N
1681306595.2,286047011.7,N
1681306615.9,286047017.3,N
1681306635.7,286047017.8,N
1681306655.6,286047015.8,N
1681306675.4,286047013.4,N
1681306695.2,286047012.7,N
1681306715.1,286047014.1,N
1681306716.0,286047014.1,N
1681306735.8,286047017.7,N
1681306755.7,286047023.0,Y
1681306775.5,286047013.8,P
1681306795.3,286047015.2,P
1681306815.2,286047001.7,N
1681306835.0,286046999.0,N
1681306835.9,286046999.0,N
1681306855.7,286046992.3,N
1681306875.6,286046999.6,N
1681306895.4,286047001.8,N
1681306915.3,286046995.4,N
1681306935.1,286046988.6,N
1681306936.0,286046988.6,N
1681306955.8,286046990.9,N
1681306975.7,286046984.4,N
1681306995.5,286046991.2,N
1681307015.3,286046999.5,N
1681307035.2,286046994.8,N
1681307055.0,286046992.8,N
1681307055.9,286046992.8,N
1681307075.8,286047001.1,N
1681307095.6,286046993.8,N
1681307115.4,286046988.4,N
1681307135.3,286046985.4,N
1681307155.1,286046983.8,N
1681307175.8,286046983.0,N
1681307195.7,286046986.0,N
1681307215.5,286046988.8,N
1681307235.4,286046994.4,N
1681307255.2,286046992.2,N
1681307275.0,286046998.4,N
1681307275.9,286046998.4,N
1681307295.8,286047008.9,N
1681307315.6,286047011.1,N
1681307335.4,286047012.6,N
1681307355.3,286047005.1,N
1681307375.1,286047004.5,N
1681307395.9,286047004.7,N
1681307415.7,286047010.3,N
1681307435.5,286047011.9,N
1681307455.4,286047016.0,N
1681307475.2,286047015.1,N
1681307495.0,286047010.3,N
1681307495.9,286047010.3,N
1681307515.8,286047004.7,N
1681307535.6,286047001.4,N
1681307555.5,286047004.5,N
1681307575.3,286047013.9,N
1681307595.1,286047014.9,N
1681307615.9,286047014.1,N
1681307635.7,286047016.8,N
1681307655.5,286047020.0,N
1681307675.4,286047018.8,N
1681307695.2,286047018.2,N
1681307715.1,286047016.6,N
1681307716.0,286047016.6,N
1681307735.8,286047019.1,N
1681307755.6,286047020.7,N
1681307775.5,286047020.9,N
1681307795.3,286047014.4,N
1681307815.1,286047010.0,N
1681307835.9,286047011.7,N
1681307855.7,286047015.0,N
1681307875.6,286047013.1,N
1681307895.4,286047011.7,N
1681307915.2,286047011.5,N
1681307935.1,286047017.4,Y
1681307936.0,286047017.4,P
1681307955.8,286047005.0,N
1681307975.6,286046996.3,N
1681307995.5,286046995.4,N
